Weather History for Jackson, MN

Change the Weather History Date:

Tuesday, July 9, 2013

  Actual Average Record
Temperature  
Mean Temperature 78 °F -  
Max Temperature 87 °F 79 °F 91 °F (2001)
Min Temperature 68 °F 59 °F 50 °F (1997)
Cooling Degree Days 12    
Growing Degree Days 28 (Base 50)    
Moisture  
Dew Point 66 °F    
Average Humidity 66    
Maximum Humidity 83    
Minimum Humidity 46    
Precipitation  
Precipitation 0.17 in - - ()
Sea Level Pressure  
Sea Level Pressure 29.93 in    
Wind  
Wind Speed 9 mph (WSW)    
Max Wind Speed 26 mph    
Max Gust Speed 50 mph    
Visibility 10 miles    
Events Rain    
Averages and records for this station are not official NWS values.
T = Trace of Precipitation, MM = Missing Value Source: NWS Daily Summary

Daily Weather History Graph

Daily Weather History Graph

Search for Another Location

Airport:

Trip Planner

Search our weather history database for the weather conditions in past years. The results will help you decide how hot, cold, wet, or windy it might be!

Date:

Astronomy

Jul. 09, 2013 Rise Set
Actual Time 5:47 AM CDT 9:02 PM CDT
Civil Twilight 5:12 AM CDT 9:37 PM CDT
Nautical Twilight 4:26 AM CDT 10:23 PM CDT
Astronomical Twilight 3:30 AM CDT 11:18 PM CDT
Moon 7:17 AM CDT (7/9) 9:35 PM CDT (7/9)
Length of Visible Light 16h 25m
Length of Day
15h 14m
New Moon, 2% of the Moon is Illuminated
Jul 9
New Moon
Jul 15
First Quarter
Jul 22
Full
Jul 29
Last Quarter
Aug 6
New

Hourly Weather History & Observations

Time (CDT) Temp. Heat Index Dew Point Humidity Pressure Visibility Wind Dir Wind Speed Gust Speed Precip Events Conditions
12:13 AM 77.0 °F - 66.2 °F 69% 29.96 in 10.0 mi East 5.8 mph - N/A   Clear
12:34 AM 75.2 °F - 66.2 °F 73% 29.95 in 10.0 mi East 8.1 mph - N/A   Clear
12:54 AM 75.2 °F - 68.0 °F 78% 29.96 in 10.0 mi ESE 5.8 mph - N/A   Clear
1:13 AM 75.2 °F - 68.0 °F 78% 29.96 in 10.0 mi ESE 5.8 mph - N/A   Clear
1:34 AM 77.0 °F - 68.0 °F 74% 29.95 in 10.0 mi SE 6.9 mph - N/A   Clear
1:54 AM 77.0 °F - 68.0 °F 74% 29.96 in 10.0 mi SSE 6.9 mph - N/A   Clear
2:13 AM 77.0 °F - 68.0 °F 74% 29.95 in 10.0 mi South 6.9 mph - N/A   Clear
2:34 AM 77.0 °F - 68.0 °F 74% 29.93 in 10.0 mi SSE 5.8 mph - N/A   Clear
2:54 AM 77.0 °F - 69.8 °F 78% 29.93 in 10.0 mi South 5.8 mph - N/A   Clear
3:14 AM 77.0 °F - 69.8 °F 78% 29.91 in 10.0 mi SSE 5.8 mph - N/A   Clear
3:34 AM 75.2 °F - 69.8 °F 83% 29.89 in 10.0 mi SSE 6.9 mph - N/A   Clear
3:54 AM 75.2 °F - 69.8 °F 83% 29.89 in 10.0 mi SSE 6.9 mph - N/A   Clear
4:14 AM 75.2 °F - 68.0 °F 78% 29.90 in 10.0 mi SSE 8.1 mph - N/A   Clear
4:34 AM 75.2 °F - 68.0 °F 78% 29.90 in 10.0 mi SSE 4.6 mph - N/A   Clear
4:54 AM 75.2 °F - 68.0 °F 78% 29.91 in 10.0 mi SSW 6.9 mph - N/A   Clear
5:13 AM 75.2 °F - 68.0 °F 78% 29.91 in 10.0 mi SSW 8.1 mph - N/A   Scattered Clouds
5:34 AM 77.0 °F - 68.0 °F 74% 29.90 in 10.0 mi South 9.2 mph - N/A   Scattered Clouds
5:54 AM 77.0 °F - 68.0 °F 74% 29.90 in 10.0 mi SSW 5.8 mph - N/A   Clear
6:13 AM 77.0 °F - 68.0 °F 74% 29.90 in 10.0 mi SW 5.8 mph - N/A   Scattered Clouds
6:34 AM 77.0 °F - 68.0 °F 74% 29.94 in 10.0 mi West 10.4 mph - N/A   Mostly Cloudy
6:53 AM 71.6 °F - 64.4 °F 78% 29.99 in 10.0 mi NW 26.5 mph 49.5 mph N/A Rain Light Rain
7:14 AM 68.0 °F - 62.6 °F 83% 29.97 in 3.0 mi NW 15.0 mph - 0.10 in Rain Light Rain
7:33 AM 68.0 °F - 62.6 °F 83% 29.95 in 10.0 mi WNW 9.2 mph 17.3 mph 0.10 in Rain Light Rain
7:54 AM 68.0 °F - 60.8 °F 78% 29.90 in 7.0 mi South 5.8 mph - 0.15 in Rain Heavy Rain
8:14 AM 68.0 °F - 62.6 °F 83% 29.86 in 10.0 mi South 9.2 mph - 0.02 in Rain Light Rain
8:33 AM 68.0 °F - 62.6 °F 83% 29.85 in 10.0 mi South 11.5 mph - 0.02 in   Clear
8:54 AM 69.8 °F - 62.6 °F 78% 29.85 in 10.0 mi South 9.2 mph - 0.02 in   Clear
9:14 AM 71.6 °F - 64.4 °F 78% 29.85 in 10.0 mi SSW 8.1 mph - N/A   Clear
9:33 AM 75.2 °F - 64.4 °F 69% 29.86 in 10.0 mi SW 12.7 mph - N/A   Clear
9:54 AM 77.0 °F - 66.2 °F 69% 29.87 in 10.0 mi SSW 13.8 mph - N/A   Clear
10:14 AM 78.8 °F - 66.2 °F 65% 29.88 in 10.0 mi SW 13.8 mph - N/A   Clear
10:33 AM 78.8 °F - 68.0 °F 69% 29.90 in 10.0 mi SW 16.1 mph 19.6 mph N/A   Clear
10:54 AM 80.6 °F 83.2 °F 68.0 °F 65% 29.91 in 10.0 mi SW 13.8 mph 21.9 mph N/A   Clear
11:14 AM 80.6 °F 83.2 °F 68.0 °F 65% 29.91 in 10.0 mi WSW 12.7 mph 18.4 mph N/A   Clear
11:33 AM 82.4 °F 85.4 °F 68.0 °F 62% 29.92 in 10.0 mi SW 12.7 mph - N/A   Clear
11:54 AM 82.4 °F 85.4 °F 68.0 °F 62% 29.92 in 10.0 mi WSW 12.7 mph - N/A   Clear
12:14 PM 84.2 °F 87.3 °F 68.0 °F 58% 29.92 in 10.0 mi WSW 15.0 mph - N/A   Clear
12:33 PM 86.0 °F 89.4 °F 68.0 °F 55% 29.92 in 10.0 mi WSW 12.7 mph 18.4 mph N/A   Scattered Clouds
12:54 PM 86.0 °F 89.4 °F 68.0 °F 55% 29.92 in 10.0 mi West 15.0 mph 19.6 mph N/A   Scattered Clouds
1:14 PM 86.0 °F 88.2 °F 66.2 °F 51% 29.92 in 10.0 mi West 17.3 mph 24.2 mph N/A   Scattered Clouds
1:33 PM 86.0 °F 88.2 °F 66.2 °F 51% 29.92 in 10.0 mi West 16.1 mph 21.9 mph N/A   Mostly Cloudy
1:54 PM 87.8 °F 89.4 °F 64.4 °F 46% 29.91 in 10.0 mi West 17.3 mph 23.0 mph N/A   Scattered Clouds
2:14 PM 86.0 °F 87.3 °F 64.4 °F 48% 29.92 in 10.0 mi WNW 15.0 mph - N/A   Scattered Clouds
2:33 PM 87.8 °F 89.4 °F 64.4 °F 46% 29.91 in 10.0 mi WNW 13.8 mph - N/A   Clear
2:54 PM 87.8 °F 89.4 °F 64.4 °F 46% 29.92 in 10.0 mi WNW 10.4 mph 19.6 mph N/A   Clear
3:13 PM 87.8 °F 89.4 °F 64.4 °F 46% 29.92 in 10.0 mi WNW 16.1 mph - N/A   Clear
3:34 PM 86.0 °F 87.3 °F 64.4 °F 48% 29.93 in 10.0 mi WNW 15.0 mph - N/A   Clear
3:54 PM 86.0 °F 87.3 °F 64.4 °F 48% 29.93 in 10.0 mi West 16.1 mph 23.0 mph N/A   Clear
4:13 PM 86.0 °F 87.3 °F 64.4 °F 48% 29.93 in 10.0 mi West 15.0 mph 20.7 mph N/A   Clear
4:34 PM 86.0 °F 87.3 °F 64.4 °F 48% 29.93 in 10.0 mi WNW 13.8 mph 18.4 mph N/A   Clear
4:54 PM 86.0 °F 87.3 °F 64.4 °F 48% 29.94 in 10.0 mi WNW 15.0 mph 18.4 mph N/A   Clear
5:13 PM 86.0 °F 87.3 °F 64.4 °F 48% 29.94 in 10.0 mi WNW 16.1 mph 19.6 mph N/A   Clear
5:34 PM 86.0 °F 87.3 °F 64.4 °F 48% 29.94 in 10.0 mi WNW 13.8 mph 17.3 mph N/A   Clear
5:54 PM 86.0 °F 87.3 °F 64.4 °F 48% 29.94 in 10.0 mi NW 15.0 mph 19.6 mph N/A   Clear
6:13 PM 84.2 °F 85.6 °F 64.4 °F 51% 29.95 in 10.0 mi NW 13.8 mph 19.6 mph N/A   Clear
6:34 PM 84.2 °F 85.6 °F 64.4 °F 51% 29.95 in 10.0 mi NNW 15.0 mph 20.7 mph N/A   Clear
6:54 PM 82.4 °F 83.4 °F 62.6 °F 51% 29.95 in 10.0 mi NW 12.7 mph - N/A   Clear
7:13 PM 82.4 °F 83.4 °F 62.6 °F 51% 29.95 in 10.0 mi WNW 11.5 mph - N/A   Clear
7:34 PM 82.4 °F 83.9 °F 64.4 °F 54% 29.95 in 10.0 mi NW 10.4 mph - N/A   Clear
7:54 PM 80.6 °F 82.3 °F 64.4 °F 58% 29.95 in 10.0 mi NNW 10.4 mph - N/A   Clear
8:13 PM 80.6 °F 82.3 °F 64.4 °F 58% 29.95 in 10.0 mi NNW 6.9 mph - N/A   Clear
8:34 PM 78.8 °F - 64.4 °F 61% 29.95 in 10.0 mi NNW 6.9 mph - N/A   Clear
8:54 PM 78.8 °F - 64.4 °F 61% 29.96 in 10.0 mi NNW 6.9 mph - N/A   Clear
9:13 PM 77.0 °F - 64.4 °F 65% 29.97 in 10.0 mi NNW 8.1 mph - N/A   Clear
9:34 PM 75.2 °F - 64.4 °F 69% 29.98 in 10.0 mi NNW 9.2 mph - N/A   Clear
9:54 PM 73.4 °F - 64.4 °F 73% 29.99 in 10.0 mi NW 5.8 mph - N/A   Clear
10:13 PM 73.4 °F - 64.4 °F 73% 29.99 in 10.0 mi West 4.6 mph - N/A   Clear
10:34 PM 71.6 °F - 64.4 °F 78% 30.00 in 10.0 mi WNW 5.8 mph - N/A   Clear
10:54 PM 71.6 °F - 64.4 °F 78% 30.00 in 10.0 mi West 4.6 mph - N/A   Clear
11:14 PM 71.6 °F - 64.4 °F 78% 30.00 in 10.0 mi NW 6.9 mph - N/A   Scattered Clouds
11:34 PM 71.6 °F - 64.4 °F 78% 30.00 in 10.0 mi NW 6.9 mph - N/A   Clear
11:53 PM 71.6 °F - 64.4 °F 78% 30.01 in 10.0 mi NW 8.1 mph - N/A   Clear